SCP
0 0 0 0 0 0 0 0 0 0 0 0 0 0 0 0 0 0 0 0 -0 -0 -0 0 0 0 -0 -0 -0 -0 -0 0 0 0 0 0 0 0 0 0 0 0 0 0 0 0 0 0 0
0 0 0 0 0 0 0 0 0 0 0 0 0 0 0 0 -0 0 0 0 0 -0 -0 0 -0 -0 -0 -0 -0 -0 0 0 0 0 0 0 0 0 0 0 0 0 0 0 0 0 0 0 0
0 0 0 0 0 0 0 0 0 0 0 0 0 0 0 0 0 0 0 0 0 -0 -0 -0 -0 -0 -0 -0 -0 0 0 0 0 0 0 0 0 0 0 0 0 0 0 0 0 0 0 0 0
0 0 0 0 0 0 0 0 0 0 0 0 0 0 0 0 0 0 0 0 0 -0 0 0 0 0 0 0 0 0 0 0 0 0 0 0 0 0 0 0 0 0 0 0 0 0 0 0 0
0 0 0 0 0 0 0 0 0 0 0 0 0 0 0 0 0 0 0 0 -0 0 0 0 0 0 0 0 0 0 0 0 0 0 0 0 0 0 0 0 0 0 0 0 0 0 0 0 0
0 0 0 0 0 0 0 0 0 0 0 0 0 0 0 0 -0 0 0 0 -0 0 0 0 0 0 0 0 0 0 0 0 0 0 0 0 0 0 0 0 0 0 0 0 0 0 0 0 0
0 0 0 0 0 0 0 0 0 0 0 0 0 -0 -0 -0 -0 0 0 0 -0 -0 0 0 0 0 0 0 0 0 0 0 0 0 0 0 0 0 0 0 0 0 0 0 0 0 0 0 0
0 0 0 0 0 0 0 0 0 0 0 0 0 0 0 0 0 0 0 0 0 0 0 0 0 0 0 0 0 0 0 0 0 0 0 0 0 0 0 0 0 0 0 0 0 0 0 0 0
0 0 0 0 0 0 0 0 0 0 0 0 0 0 0 0 0 0 0 0 0 0 0 0 0 0 0 0 0 0 0 0 0 0 0 0 0 0 0 0 0 0 0 0 0 0 0 0 0
0 0 0 0 0 0 0 0 0 0 0 0 0 0 0 0 0 0 0 0 0 0 0 0 0 0 0 0 0 0 0 0 0 0 0 0 0 0 0 0 0 0 0 0 0 0 0 0 0
0 0 0 0 0 0 0 0 0 0 0 0 0 0 0 0 0 0 0 0 0 0 0 0 0 0 0 0 0 0 0 0 0 0 0 0 0 0 0 0 0 0 0 0 0 0 0 0 0
0 0 0 0 0 0 0 0 0 0 0 0 0 0 0 0 0 0 0 0 0 0 0 0 0 0 0 0 0 0 0 0 0 0 0 0 0 0 0 0 0 0 0 0 0 0 0 0 0
0 0 0 0 0 0 0 0 0 0 0 0 0 0 0 0 0 0 0 0 0 0 0 0 0 0 0 0 0 0 0 0 0 0 0 0 0 0 0 0 0 0 0 0 0 0 0 0 0
0 0 0 0 0 0 0 0 0 0 0 0 0 0 0 0 0 0 0 0 0 0 0 0 0 0 0 0 0 0 0 0 0 0 0 0 0 0 0 0 0 0 0 0 0 0 0 0 0
0 0 0 0 0 0 0 0 0 0 0 0 0 0 0 0 0 0 0 0 0 0 0 0 0 0 0 0 0 0 0 0 0 0 0 0 0 0 0 0 0 0 0 0 0 0 0 0 0
0 0 0 0 0 0 0 0 0 0 0 0 0 0 0 0 0 0 0 0 0 0 0 0 0 0 0 0 0 0 0 0 0 0 0 0 0 0 0 0 0 0 0 0 0 0 0 0 0
0 0 0 0 0 0 0 0 0 0 0 0 0 0 0 0 0 0 0 0 0 0 0 0 0 0 0 0 0 0 0 0 0 0 0 0 0 0 0 0 0 0 0 0 0 0 0 0 0
0 0 0 0 0 0 0 0 0 0 0 0 0 0 0 0 0 0 0 0 0 0 0 0 0 0 0 0 0 0 0 0 0 0 0 0 0 0 0 0 0 0 0 0 0 0 0 0 0
0 0 0 0 0 0 0 0 0 0 0 0 0 0 0 0 0 0 0 0 0 0 0 0 0 0 0 0 0 0 0 0 0 0 0 0 0 0 0 0 0 0 0 0 0 0 0 0 0
0 0 0 0 0 0 0 0 0 0 0 0 0 0 0 0 0 0 0 0 0 0 0 0 0 0 0 0 0 0 0 0 0 0 0 0 0 0 0 0 0 0 0 0 0 0 0 0 0
0 0 0 0 0 0 0 0 0 0 0 0 0 0 0 0 0 0 0 0 0 0 0 0 0 0 0 0 0 0 0 0 0 0 0 0 0 0 0 0 0 0 0 0 0 0 0 0 0
0 0 0 0 0 0 0 0 0 0 0 0 0 0 0 0 0 0 0 0 0 0 0 0 0 0 0 0 0 0 0 0 0 0 0 0 0 0 0 0 0 0 0 0 0 0 0 0 0
0 0 0 0 0 0 0 0 0 0 0 0 0 0 0 0 0 0 0 0 0 0 0 0 0 0 0 0 0 0 0 0 0 0 0 0 0 0 0 0 0 0 0 0 0 0 0 0 0
0 0 0 0 0 0 0 0 0 0 0 0 0 0 0 0 0 0 0 0 0 0 0 0 0 0 0 0 0 0 0 0 0 0 0 0 0 0 0 0 0 0 0 0 0 0 0 0 0
0 0 0 0 0 0 0 0 0 0 0 0 0 0 0 0 0 0 0 0 0 0 0 0 0 0 0 0 0 0 0 0 0 0 0 0 0 0 0 0 0 0 0 0 0 0 0 0 0
0 0 0 0 0 0 0 0 0 0 0 0 0 0 0 0 0 0 0 0 0 0 0 0 0 0 0 0 0 0 0 0 0 0 0 0 0 0 0 0 0 0 0 0 0 0 0 0 0
0 0 0 0 0 0 0 0 0 0 0 0 0 0 0 0 0 0 0 0 0 0 0 0 0 0 0 0 0 0 0 0 0 0 0 0 0 0 0 0 0 0 0 0 0 0 0 0 0
0 0 0 0 0 0 0 0 0 0 0 0 0 0 0 0 0 0 0 0 0 0 0 0 0 0 0 0 0 0 0 0 0 0 0 0 0 0 0 0 0 0 0 0 0 0 0 0 0
0 0 0 0 0 0 0 0 0 0 0 0 0 0 0 0 0 0 0 0 0 0 0 0 0 0 0 0 0 0 0 0 0 0 0 0 0 0 0 0 0 0 0 0 0 0 0 0 0
0 0 0 0 0 0 0 0 0 0 0 0 0 0 0 0 0 0 0 0 0 0 0 0 0 0 0 0 0 0 0 0 0 0 0 0 0 0 0 0 0 0 0 0 0 0 0 0 0
Wind_Speed_500mb
14 8 2 3 3 5 12 7 7 2 3 14 12 16 6 29 11 5 23 16 21 24 24 28 22 21 18 18 14 10 12 12 13 15 16 18 21 24 28 31 34 35 38 40 41 43 45 43 43
15 4 4 10 4 8 10 10 9 11 19 9 4 8 5 9 21 11 8 20 25 17 18 26 24 21 21 20 18 13 13 13 15 17 20 22 26 30 33 35 36 37 38 39 41 43 45 48 48
12 10 8 5 7 9 5 7 11 19 10 7 3 4 9 9 12 9 5 25 32 26 25 26 24 21 20 13 12 13 14 14 17 20 23 27 31 33 34 37 39 41 42 43 45 46 49 50 49
2 7 12 4 14 18 8 15 17 10 6 3 10 5 10 4 8 8 11 29 29 32 30 26 22 16 12 13 13 13 14 16 19 23 27 30 32 34 36 40 43 45 47 49 51 53 54 56 57
12 9 7 8 20 6 8 16 6 3 15 18 5 5 10 4 4 4 14 27 25 25 26 23 20 15 13 12 12 13 14 17 20 25 28 30 32 35 39 43 47 49 51 51 50 49 52 56 59
11 8 7 11 18 6 11 10 3 8 6 18 4 16 9 7 3 5 11 25 24 20 20 21 19 15 13 13 12 13 14 19 22 25 28 31 34 38 42 46 50 50 49 47 48 48 49 50 51
7 6 12 13 10 13 7 8 6 6 6 4 3 9 11 8 2 7 12 23 22 16 15 17 20 17 15 14 13 13 16 20 23 26 28 32 37 43 46 47 47 41 43 43 39 38 38 39 41
9 6 11 6 8 6 11 9 7 3 3 1 5 2 10 14 8 9 15 20 20 23 19 18 19 17 16 15 14 15 17 21 23 25 29 34 39 43 44 43 48 48 39 31 30 30 29 28 29
7 6 9 12 12 4 17 5 3 4 3 1 3 2 10 14 6 10 15 21 22 23 21 21 20 17 18 15 14 15 17 20 22 26 30 34 39 40 38 40 37 30 23 24 25 24 26 28 30
11 5 7 11 14 13 18 6 7 3 7 7 11 14 17 12 11 11 13 19 24 26 26 28 24 20 19 17 13 15 16 20 24 29 33 38 38 36 38 36 36 23 24 24 29 29 33 33 32
14 8 9 15 24 20 18 1 3 5 6 8 5 15 22 10 9 13 16 16 20 26 26 29 26 22 17 19 14 15 18 21 26 33 37 39 34 34 33 34 26 18 21 23 23 26 27 28 35
7 17 25 7 10 8 8 13 10 14 20 26 18 11 8 16 16 17 19 15 24 28 30 25 27 25 18 19 15 16 18 21 26 33 38 34 32 30 30 31 24 17 17 21 25 29 31 29 28
10 14 7 12 8 15 19 14 12 36 34 26 28 21 20 18 17 20 20 22 25 32 31 29 28 26 22 19 16 16 19 22 27 33 37 34 30 26 24 22 20 20 16 16 23 24 24 24 20
5 27 29 11 8 10 6 7 8 13 6 4 13 9 12 11 11 16 22 24 29 34 32 32 27 25 24 19 19 18 18 22 30 34 34 33 28 24 21 16 13 13 14 14 19 21 24 25 23
1 5 14 20 18 6 7 12 15 28 16 8 10 7 4 10 7 4 6 16 19 25 27 30 29 26 23 21 17 16 18 22 27 31 33 30 26 21 16 13 12 11 11 16 15 20 17 24 31
9 9 7 10 20 4 3 6 13 16 14 20 17 5 9 20 9 5 14 18 8 22 24 30 31 26 21 19 16 15 15 22 27 28 28 28 22 16 10 11 11 12 14 17 16 19 30 34 37
7 6 13 7 11 8 10 4 12 10 17 18 38 41 34 26 19 17 20 23 18 15 21 33 29 24 21 16 13 13 15 22 25 26 25 21 16 11 13 13 10 9 14 15 18 22 25 32 43
11 8 4 6 8 10 11 14 10 21 38 43 44 44 42 41 41 33 21 8 16 18 22 28 23 22 17 12 9 10 16 20 23 24 21 15 9 10 11 9 9 7 11 19 21 17 25 32 40
7 5 7 10 6 3 9 5 7 36 42 40 43 46 44 41 38 32 27 20 19 18 20 16 20 15 10 7 4 9 15 20 23 23 18 11 7 8 6 9 8 9 10 11 14 13 24 33 33
5 5 2 8 5 2 9 10 23 31 32 39 38 42 44 45 37 38 36 28 25 22 18 17 14 15 9 3 4 11 14 18 19 18 14 7 6 6 6 7 7 9 9 11 17 17 23 32 34
12 9 4 4 6 9 6 8 16 20 35 39 45 42 45 42 35 36 34 34 26 25 22 20 16 12 8 5 6 10 15 21 23 22 15 6 4 7 7 4 4 7 5 6 13 9 17 23 28
16 13 9 6 3 4 1 5 9 22 23 35 40 44 42 40 40 41 39 36 29 24 20 20 17 13 9 8 9 11 12 13 16 16 12 5 2 6 8 2 3 4 3 0 5 5 8 14 26
5 2 14 10 6 9 4 6 1 21 15 25 31 35 37 40 45 43 42 37 30 27 25 20 18 14 12 12 12 12 11 12 14 12 12 6 2 6 13 8 6 4 2 3 5 3 5 7 16
11 11 13 1 6 3 11 9 1 7 8 12 24 31 36 39 35 38 34 33 31 26 24 21 20 19 18 17 17 16 16 15 11 12 12 9 5 5 11 13 11 9 8 8 6 8 5 6 5
7 10 4 4 2 8 8 6 5 14 14 16 19 30 33 34 37 32 28 28 26 25 23 21 19 19 20 20 19 19 17 16 17 12 11 11 10 10 11 14 15 12 12 12 12 10 6 8 9
12 5 6 10 9 7 4 10 4 13 20 26 29 29 32 35 34 33 29 28 26 24 22 20 18 17 17 18 20 21 19 18 15 15 15 9 9 10 10 14 17 19 17 15 15 14 12 16 16
9 8 1 8 3 6 9 9 7 14 13 25 28 31 34 35 35 35 34 33 30 25 24 21 16 16 15 16 16 17 19 17 18 17 19 19 17 18 19 17 17 19 21 17 17 17 18 18 19
0 2 4 5 5 5 2 9 6 15 15 16 21 27 30 32 35 36 37 35 33 30 27 21 20 20 18 14 13 12 12 15 18 17 21 23 22 20 22 22 21 19 22 21 23 23 21 23 24
5 5 2 3 4 6 5 3 10 17 15 16 21 25 28 30 32 33 33 34 34 33 34 33 30 26 22 19 15 15 17 16 15 12 10 12 17 17 16 22 22 22 22 22 20 22 24 22 26
6 4 9 7 8 2 4 4 11 14 21 24 24 24 26 27 28 29 32 34 36 37 37 40 38 36 35 30 25 21 19 18 19 22 25 23 20 17 18 20 25 24 25 27 28 30 30 32 32
Wind_Direction_500mb
226 261 14 237 237 219 258 241 55 90 143 47 356 26 311 46 26 107 151 154 163 202 175 170 175 173 181 199 203 219 239 261 281 290 292 294 294 295 296 295 294 292 289 287 286 283 280 275 271
211 262 258 263 256 205 234 143 173 144 75 96 60 307 313 76 58 96 105 144 147 182 168 174 167 178 182 192 213 231 248 266 280 289 293 296 297 298 298 297 296 293 291 289 286 282 279 277 273
207 176 267 215 208 251 63 68 118 72 80 132 145 357 13 81 74 130 203 144 155 170 186 172 171 172 193 219 237 241 251 267 283 290 296 299 302 302 303 303 300 299 297 293 289 286 283 281 278
89 229 266 269 240 241 60 66 39 116 117 87 1 122 95 109 147 174 123 142 166 190 196 184 184 196 205 217 227 242 262 276 286 294 298 301 303 305 305 302 302 300 298 297 295 293 291 284 277
206 246 255 204 265 117 41 69 5 299 141 156 186 172 96 28 65 118 136 153 190 210 202 191 197 205 218 224 238 253 270 282 291 297 301 303 306 306 304 304 302 302 301 301 300 296 290 286 281
244 263 244 235 227 71 112 101 101 300 211 110 197 262 96 85 89 173 144 154 205 228 200 199 204 218 229 239 248 263 276 291 300 303 306 309 310 307 306 306 305 308 309 309 305 303 299 293 286
273 212 257 277 263 139 125 108 151 357 1 41 14 351 120 138 146 156 140 160 209 238 210 208 213 222 239 248 256 272 288 298 304 310 312 315 315 312 311 310 313 316 313 310 309 305 302 301 303
280 263 268 227 342 22 114 128 126 150 55 216 231 311 148 189 155 167 163 182 191 215 211 235 221 230 244 250 264 283 297 304 308 313 315 320 318 313 318 322 322 319 318 319 317 323 331 329 328
267 295 251 225 182 205 115 194 124 173 242 162 249 321 175 182 203 206 192 198 198 226 211 229 241 236 245 249 265 281 299 307 311 315 321 323 325 324 324 319 322 331 331 336 341 347 346 341 337
222 253 264 17 27 20 107 42 103 167 194 245 234 254 247 230 242 226 223 216 209 233 221 221 237 235 247 260 265 288 303 309 317 323 329 331 328 326 330 329 331 338 352 354 348 344 337 332 337
205 226 301 20 24 12 350 7 187 315 255 240 247 244 234 253 251 238 240 229 256 246 246 220 237 240 243 255 277 296 309 317 324 325 332 332 332 333 332 334 341 1 348 352 350 349 7 17 0
285 247 276 352 13 346 339 344 313 256 251 303 306 276 275 279 278 271 232 220 233 242 251 233 232 241 242 254 269 291 306 320 323 327 327 335 335 333 337 340 350 359 354 5 358 359 359 358 351
193 281 257 273 283 296 296 276 271 276 271 279 279 273 270 247 258 268 256 223 223 235 237 244 234 236 245 253 266 292 307 318 324 326 329 335 334 332 333 336 350 2 12 4 13 7 359 1 348
167 229 269 266 270 258 290 275 2 281 118 19 327 289 267 276 257 247 244 236 227 230 230 241 236 232 241 243 263 286 308 321 325 328 332 333 338 336 334 342 2 8 0 8 12 356 22 12 4
132 281 252 241 222 255 257 277 221 282 245 357 15 32 307 245 309 330 276 280 244 248 234 230 237 230 237 244 256 283 310 317 326 330 334 337 342 344 350 16 32 10 360 22 19 38 39 26 15
205 197 220 47 131 186 108 327 88 96 72 11 341 310 98 74 111 173 198 194 236 250 242 220 231 232 233 240 260 292 315 321 328 333 337 341 343 355 19 62 40 22 54 38 29 41 46 31 17
216 247 201 138 187 123 202 191 129 44 349 36 47 49 48 26 341 311 276 241 206 232 228 216 228 225 224 235 261 300 317 326 331 336 339 347 351 31 68 72 58 45 63 65 54 46 47 39 25
191 205 274 143 142 198 182 273 312 5 72 62 51 43 37 30 11 355 358 53 166 199 206 217 216 208 214 227 265 304 325 335 338 344 348 354 30 62 73 48 68 72 71 69 63 46 43 31 21
13 155 290 84 94 322 229 251 351 72 60 53 48 38 31 26 20 16 36 81 130 145 179 192 186 188 186 202 268 332 341 338 341 347 355 14 61 77 62 30 67 90 77 49 76 38 32 25 25
247 142 160 66 72 346 15 321 89 76 67 61 51 39 29 25 32 37 50 71 98 124 135 150 155 148 160 141 1 337 342 347 346 356 6 31 59 49 50 69 68 85 59 73 77 48 31 25 13
224 188 136 46 323 215 295 125 113 94 85 64 49 40 35 30 33 49 61 74 89 100 117 126 136 130 119 79 16 8 12 8 357 352 4 35 52 40 24 54 85 57 65 103 70 52 26 27 16
227 206 211 263 48 250 261 262 193 137 87 59 43 36 32 33 44 54 63 68 72 85 99 107 108 95 71 39 26 25 21 356 352 351 355 27 30 20 5 322 156 98 67 229 110 359 352 50 29
159 174 177 198 214 298 191 84 281 160 70 51 43 37 33 41 51 54 57 60 68 75 73 75 76 65 47 32 23 14 7 360 8 12 14 27 29 3 11 356 308 315 330 294 235 223 277 46 33
160 103 72 133 211 349 212 145 246 36 35 46 47 44 37 39 54 68 63 65 66 73 73 65 56 46 36 30 18 7 5 8 5 19 22 18 348 328 342 344 336 317 318 300 277 246 235 355 2
233 165 71 21 20 223 2 98 79 82 69 65 58 51 46 45 46 51 55 58 62 61 66 66 57 46 33 27 19 12 11 10 6 2 359 9 8 343 334 325 329 317 301 297 292 258 227 283 286
198 232 169 182 183 192 28 217 131 95 87 80 73 63 55 50 48 46 49 52 54 53 51 49 41 35 27 23 21 11 12 9 6 351 332 331 334 330 310 313 316 324 314 285 286 274 262 254 269
174 211 350 111 107 77 173 90 122 128 94 76 67 61 55 52 48 44 44 46 46 46 42 34 28 22 16 11 9 13 6 6 1 348 342 327 306 302 306 290 301 306 303 285 278 277 270 271 272
116 93 138 328 127 200 170 138 119 178 110 81 64 59 59 56 52 49 43 43 43 41 37 32 25 18 13 9 8 356 354 358 0 359 353 344 334 323 323 314 301 293 303 296 271 265 270 275 275
179 167 216 167 130 184 160 178 352 94 96 99 84 67 59 57 54 52 51 49 48 46 41 37 35 31 26 15 3 353 344 338 329 320 305 313 329 329 313 306 303 299 295 296 296 291 278 282 286
333 250 174 138 224 210 123 188 78 91 99 108 95 85 74 64 55 53 52 51 50 49 45 41 40 39 36 30 19 14 354 344 337 328 322 313 303 301 309 294 286 289 293 289 283 281 278 277 278
Wind_Speed_850mb
14 8 2 3 3 5 12 7 7 2 3 14 12 16 6 29 11 5 23 16 21 24 24 28 22 21 18 18 14 10 12 12 13 15 16 18 21 24 28 31 34 35 38 40 41 43 45 43 43
15 4 4 10 4 8 10 10 9 11 19 9 4 8 5 9 21 11 8 20 25 17 18 26 24 21 21 20 18 13 13 13 15 17 20 22 26 30 33 35 36 37 38 39 41 43 45 48 48
12 10 8 5 7 9 5 7 11 19 10 7 3 4 9 9 12 9 5 25 32 26 25 26 24 21 20 13 12 13 14 14 17 20 23 27 31 33 34 37 39 41 42 43 45 46 49 50 49
2 7 12 4 14 18 8 15 17 10 6 3 10 5 10 4 8 8 11 29 29 32 30 26 22 16 12 13 13 13 14 16 19 23 27 30 32 34 36 40 43 45 47 49 51 53 54 56 57
12 9 7 8 20 6 8 16 6 3 15 18 5 5 10 4 4 4 14 27 25 25 26 23 20 15 13 12 12 13 14 17 20 25 28 30 32 35 39 43 47 49 51 51 50 49 52 56 59
11 8 7 11 18 6 11 10 3 8 6 18 4 16 9 7 3 5 11 25 24 20 20 21 19 15 13 13 12 13 14 19 22 25 28 31 34 38 42 46 50 50 49 47 48 48 49 50 51
7 6 12 13 10 13 7 8 6 6 6 4 3 9 11 8 2 7 12 23 22 16 15 17 20 17 15 14 13 13 16 20 23 26 28 32 37 43 46 47 47 41 43 43 39 38 38 39 41
9 6 11 6 8 6 11 9 7 3 3 1 5 2 10 14 8 9 15 20 20 23 19 18 19 17 16 15 14 15 17 21 23 25 29 34 39 43 44 43 48 48 39 31 30 30 29 28 29
7 6 9 12 12 4 17 5 3 4 3 1 3 2 10 14 6 10 15 21 22 23 21 21 20 17 18 15 14 15 17 20 22 26 30 34 39 40 38 40 37 30 23 24 25 24 26 28 30
11 5 7 11 14 13 18 6 7 3 7 7 11 14 17 12 11 11 13 19 24 26 26 28 24 20 19 17 13 15 16 20 24 29 33 38 38 36 38 36 36 23 24 24 29 29 33 33 32
14 8 9 15 24 20 18 1 3 5 6 8 5 15 22 10 9 13 16 16 20 26 26 29 26 22 17 19 14 15 18 21 26 33 37 39 34 34 33 34 26 18 21 23 23 26 27 28 35
7 17 25 7 10 8 8 13 10 14 20 26 18 11 8 16 16 17 19 15 24 28 30 25 27 25 18 19 15 16 18 21 26 33 38 34 32 30 30 31 24 17 17 21 25 29 31 29 28
10 14 7 12 8 15 19 14 12 36 34 26 28 21 20 18 17 20 20 22 25 32 31 29 28 26 22 19 16 16 19 22 27 33 37 34 30 26 24 22 20 20 16 16 23 24 24 24 20
5 27 29 11 8 10 6 7 8 13 6 4 13 9 12 11 11 16 22 24 29 34 32 32 27 25 24 19 19 18 18 22 30 34 34 33 28 24 21 16 13 13 14 14 19 21 24 25 23
1 5 14 20 18 6 7 12 15 28 16 8 10 7 4 10 7 4 6 16 19 25 27 30 29 26 23 21 17 16 18 22 27 31 33 30 26 21 16 13 12 11 11 16 15 20 17 24 31
9 9 7 10 20 4 3 6 13 16 14 20 17 5 9 20 9 5 14 18 8 22 24 30 31 26 21 19 16 15 15 22 27 28 28 28 22 16 10 11 11 12 14 17 16 19 30 34 37
7 6 13 7 11 8 10 4 12 10 17 18 38 41 34 26 19 17 20 23 18 15 21 33 29 24 21 16 13 13 15 22 25 26 25 21 16 11 13 13 10 9 14 15 18 22 25 32 43
11 8 4 6 8 10 11 14 10 21 38 43 44 44 42 41 41 33 21 8 16 18 22 28 23 22 17 12 9 10 16 20 23 24 21 15 9 10 11 9 9 7 11 19 21 17 25 32 40
7 5 7 10 6 3 9 5 7 36 42 40 43 46 44 41 38 32 27 20 19 18 20 16 20 15 10 7 4 9 15 20 23 23 18 11 7 8 6 9 8 9 10 11 14 13 24 33 33
5 5 2 8 5 2 9 10 23 31 32 39 38 42 44 45 37 38 36 28 25 22 18 17 14 15 9 3 4 11 14 18 19 18 14 7 6 6 6 7 7 9 9 11 17 17 23 32 34
12 9 4 4 6 9 6 8 16 20 35 39 45 42 45 42 35 36 34 34 26 25 22 20 16 12 8 5 6 10 15 21 23 22 15 6 4 7 7 4 4 7 5 6 13 9 17 23 28
16 13 9 6 3 4 1 5 9 22 23 35 40 44 42 40 40 41 39 36 29 24 20 20 17 13 9 8 9 11 12 13 16 16 12 5 2 6 8 2 3 4 3 0 5 5 8 14 26
5 2 14 10 6 9 4 6 1 21 15 25 31 35 37 40 45 43 42 37 30 27 25 20 18 14 12 12 12 12 11 12 14 12 12 6 2 6 13 8 6 4 2 3 5 3 5 7 16
11 11 13 1 6 3 11 9 1 7 8 12 24 31 36 39 35 38 34 33 31 26 24 21 20 19 18 17 17 16 16 15 11 12 12 9 5 5 11 13 11 9 8 8 6 8 5 6 5
7 10 4 4 2 8 8 6 5 14 14 16 19 30 33 34 37 32 28 28 26 25 23 21 19 19 20 20 19 19 17 16 17 12 11 11 10 10 11 14 15 12 12 12 12 10 6 8 9
12 5 6 10 9 7 4 10 4 13 20 26 29 29 32 35 34 33 29 28 26 24 22 20 18 17 17 18 20 21 19 18 15 15 15 9 9 10 10 14 17 19 17 15 15 14 12 16 16
9 8 1 8 3 6 9 9 7 14 13 25 28 31 34 35 35 35 34 33 30 25 24 21 16 16 15 16 16 17 19 17 18 17 19 19 17 18 19 17 17 19 21 17 17 17 18 18 19
0 2 4 5 5 5 2 9 6 15 15 16 21 27 30 32 35 36 37 35 33 30 27 21 20 20 18 14 13 12 12 15 18 17 21 23 22 20 22 22 21 19 22 21 23 23 21 23 24
5 5 2 3 4 6 5 3 10 17 15 16 21 25 28 30 32 33 33 34 34 33 34 33 30 26 22 19 15 15 17 16 15 12 10 12 17 17 16 22 22 22 22 22 20 22 24 22 26
6 4 9 7 8 2 4 4 11 14 21 24 24 24 26 27 28 29 32 34 36 37 37 40 38 36 35 30 25 21 19 18 19 22 25 23 20 17 18 20 25 24 25 27 28 30 30 32 32
Wind_Direction_850mb
226 261 14 237 237 219 258 241 55 90 143 47 356 26 311 46 26 107 151 154 163 202 175 170 175 173 181 199 203 219 239 261 281 290 292 294 294 295 296 295 294 292 289 287 286 283 280 275 271
211 262 258 263 256 205 234 143 173 144 75 96 60 307 313 76 58 96 105 144 147 182 168 174 167 178 182 192 213 231 248 266 280 289 293 296 297 298 298 297 296 293 291 289 286 282 279 277 273
207 176 267 215 208 251 63 68 118 72 80 132 145 357 13 81 74 130 203 144 155 170 186 172 171 172 193 219 237 241 251 267 283 290 296 299 302 302 303 303 300 299 297 293 289 286 283 281 278
89 229 266 269 240 241 60 66 39 116 117 87 1 122 95 109 147 174 123 142 166 190 196 184 184 196 205 217 227 242 262 276 286 294 298 301 303 305 305 302 302 300 298 297 295 293 291 284 277
206 246 255 204 265 117 41 69 5 299 141 156 186 172 96 28 65 118 136 153 190 210 202 191 197 205 218 224 238 253 270 282 291 297 301 303 306 306 304 304 302 302 301 301 300 296 290 286 281
244 263 244 235 227 71 112 101 101 300 211 110 197 262 96 85 89 173 144 154 205 228 200 199 204 218 229 239 248 263 276 291 300 303 306 309 310 307 306 306 305 308 309 309 305 303 299 293 286
273 212 257 277 263 139 125 108 151 357 1 41 14 351 120 138 146 156 140 160 209 238 210 208 213 222 239 248 256 272 288 298 304 310 312 315 315 312 311 310 313 316 313 310 309 305 302 301 303
280 263 268 227 342 22 114 128 126 150 55 216 231 311 148 189 155 167 163 182 191 215 211 235 221 230 244 250 264 283 297 304 308 313 315 320 318 313 318 322 322 319 318 319 317 323 331 329 328
267 295 251 225 182 205 115 194 124 173 242 162 249 321 175 182 203 206 192 198 198 226 211 229 241 236 245 249 265 281 299 307 311 315 321 323 325 324 324 319 322 331 331 336 341 347 346 341 337
222 253 264 17 27 20 107 42 103 167 194 245 234 254 247 230 242 226 223 216 209 233 221 221 237 235 247 260 265 288 303 309 317 323 329 331 328 326 330 329 331 338 352 354 348 344 337 332 337
205 226 301 20 24 12 350 7 187 315 255 240 247 244 234 253 251 238 240 229 256 246 246 220 237 240 243 255 277 296 309 317 324 325 332 332 332 333 332 334 341 1 348 352 350 349 7 17 0
285 247 276 352 13 346 339 344 313 256 251 303 306 276 275 279 278 271 232 220 233 242 251 233 232 241 242 254 269 291 306 320 323 327 327 335 335 333 337 340 350 359 354 5 358 359 359 358 351
193 281 257 273 283 296 296 276 271 276 271 279 279 273 270 247 258 268 256 223 223 235 237 244 234 236 245 253 266 292 307 318 324 326 329 335 334 332 333 336 350 2 12 4 13 7 359 1 348
167 229 269 266 270 258 290 275 2 281 118 19 327 289 267 276 257 247 244 236 227 230 230 241 236 232 241 243 263 286 308 321 325 328 332 333 338 336 334 342 2 8 0 8 12 356 22 12 4
132 281 252 241 222 255 257 277 221 282 245 357 15 32 307 245 309 330 276 280 244 248 234 230 237 230 237 244 256 283 310 317 326 330 334 337 342 344 350 16 32 10 360 22 19 38 39 26 15
205 197 220 47 131 186 108 327 88 96 72 11 341 310 98 74 111 173 198 194 236 250 242 220 231 232 233 240 260 292 315 321 328 333 337 341 343 355 19 62 40 22 54 38 29 41 46 31 17
216 247 201 138 187 123 202 191 129 44 349 36 47 49 48 26 341 311 276 241 206 232 228 216 228 225 224 235 261 300 317 326 331 336 339 347 351 31 68 72 58 45 63 65 54 46 47 39 25
191 205 274 143 142 198 182 273 312 5 72 62 51 43 37 30 11 355 358 53 166 199 206 217 216 208 214 227 265 304 325 335 338 344 348 354 30 62 73 48 68 72 71 69 63 46 43 31 21
13 155 290 84 94 322 229 251 351 72 60 53 48 38 31 26 20 16 36 81 130 145 179 192 186 188 186 202 268 332 341 338 341 347 355 14 61 77 62 30 67 90 77 49 76 38 32 25 25
247 142 160 66 72 346 15 321 89 76 67 61 51 39 29 25 32 37 50 71 98 124 135 150 155 148 160 141 1 337 342 347 346 356 6 31 59 49 50 69 68 85 59 73 77 48 31 25 13
224 188 136 46 323 215 295 125 113 94 85 64 49 40 35 30 33 49 61 74 89 100 117 126 136 130 119 79 16 8 12 8 357 352 4 35 52 40 24 54 85 57 65 103 70 52 26 27 16
227 206 211 263 48 250 261 262 193 137 87 59 43 36 32 33 44 54 63 68 72 85 99 107 108 95 71 39 26 25 21 356 352 351 355 27 30 20 5 322 156 98 67 229 110 359 352 50 29
159 174 177 198 214 298 191 84 281 160 70 51 43 37 33 41 51 54 57 60 68 75 73 75 76 65 47 32 23 14 7 360 8 12 14 27 29 3 11 356 308 315 330 294 235 223 277 46 33
160 103 72 133 211 349 212 145 246 36 35 46 47 44 37 39 54 68 63 65 66 73 73 65 56 46 36 30 18 7 5 8 5 19 22 18 348 328 342 344 336 317 318 300 277 246 235 355 2
233 165 71 21 20 223 2 98 79 82 69 65 58 51 46 45 46 51 55 58 62 61 66 66 57 46 33 27 19 12 11 10 6 2 359 9 8 343 334 325 329 317 301 297 292 258 227 283 286
198 232 169 182 183 192 28 217 131 95 87 80 73 63 55 50 48 46 49 52 54 53 51 49 41 35 27 23 21 11 12 9 6 351 332 331 334 330 310 313 316 324 314 285 286 274 262 254 269
174 211 350 111 107 77 173 90 122 128 94 76 67 61 55 52 48 44 44 46 46 46 42 34 28 22 16 11 9 13 6 6 1 348 342 327 306 302 306 290 301 306 303 285 278 277 270 271 272
116 93 138 328 127 200 170 138 119 178 110 81 64 59 59 56 52 49 43 43 43 41 37 32 25 18 13 9 8 356 354 358 0 359 353 344 334 323 323 314 301 293 303 296 271 265 270 275 275
179 167 216 167 130 184 160 178 352 94 96 99 84 67 59 57 54 52 51 49 48 46 41 37 35 31 26 15 3 353 344 338 329 320 305 313 329 329 313 306 303 299 295 296 296 291 278 282 286
333 250 174 138 224 210 123 188 78 91 99 108 95 85 74 64 55 53 52 51 50 49 45 41 40 39 36 30 19 14 354 344 337 328 322 313 303 301 309 294 286 289 293 289 283 281 278 277 278